DW7304 Weather Reports


Display with metric or nautical units.
time (UTC)temp
F
wind
direction
speed
MPH
gust
MPH
rain 1hr
in
rain 24hr
in
rain mn
in
humidity
%
barometer
mb
20260505172703 49 90 0.0 1.0 0.12 0.45 0.45 89 1008.5
20260505171803 49 168 0.0 1.0 0.14 0.43 0.43 89 1008.7
20260505170904 49 322 0.0 1.0 0.16 0.43 0.43 89 1008.9
20260505170004 49 319 0.0 1.0 0.19 0.41 0.41 89 1008.6
20260505165403 49 261 0.0 2.0 0.20 0.41 0.41 89 1009.0
20260505164718 49 247 1.0 3.0 0.20 0.39 0.39 89 1009.0
20260505163817 49 3 0.0 3.0 0.20 0.37 0.37 89 1008.9
20260505162703 49 252 0.0 2.0 0.16 0.33 0.33 89 1009.0
20260505161803 49 253 1.0 2.0 0.14 0.29 0.29 89 1009.1
20260505160903 49 261 0.0 3.0 0.12 0.26 0.27 89 1009.1
20260505152703 49 253 3.0 5.0 0.04 0.17 0.16 88 1009.1
20260505151803 49 245 3.0 6.0 0.02 0.14 0.14 88 1009.2
20260505150903 49 225 2.0 6.0 0.04 0.14 0.14 88 1009.5
20260505130218 50 225 2.0 5.0 0.02 0.08 0.08 88 1010.0
20260505124503 50 232 2.0 4.0 0.04 0.08 0.08 88 1010.1
20260505123603 50 208 1.0 4.0 0.04 0.08 0.08 87 1010.1
20260505122703 50 206 1.0 3.0 0.04 0.08 0.08 87 1010.2
20260505121803 51 193 1.0 3.0 0.02 0.06 0.06 87 1010.2
20260505121118 50 207 2.0 5.0 0.02 0.06 0.06 87 1010.3
20260505120003 50 218 4.0 8.0 0.02 0.06 0.06 87 1010.3
20260505115403 50 227 4.0 8.0 0.02 0.06 0.06 86 1010.3
20260505114718 50 225 5.0 9.0 0.00 0.04 0.06 86 1010.4
20260505113603 51 212 3.0 6.0 0.02 0.04 0.04 86 1010.3
20260505112703 51 167 3.0 5.0 0.02 0.04 0.04 86 1010.4
20260505111803 50 181 3.0 6.0 0.02 0.04 0.04 85 1010.5
20260505111117 50 178 4.0 8.0 0.04 0.04 0.04 85 1010.5
20260505101803 51 224 4.0 9.0 0.02 0.02 0.02 84 1011.0
20260505100903 52 215 6.0 11.0 0.00 0.00 0.00 83 1011.0
20260505100004 52 216 8.0 14.0 0.00 0.00 0.00 84 1011.0
20260505095403 52 207 7.0 14.0 0.00 0.00 0.00 83 1011.0
20260505094503 53 209 6.0 11.0 0.00 0.00 0.00 82 1011.0
20260505093817 53 224 6.0 14.0 0.00 0.00 0.00 82 1011.2
20260505092918 53 220 7.0 14.0 0.00 0.00 0.00 80 1011.1
20260505092017 54 205 6.0 10.0 0.00 0.00 0.00 78 1011.1
20260505090903 54 187 7.0 14.0 0.00 0.00 0.00 76 1011.1
20260505090003 54 191 7.0 14.0 0.00 0.00 0.00 76 1011.0
20260505085403 54 194 7.0 13.0 0.00 0.00 0.00 75 1011.0
20260505084503 55 212 8.0 18.0 0.00 0.00 0.00 74 1010.8
20260505083603 55 203 5.0 11.0 0.00 0.00 0.00 75 1010.5
20260505082918 55 220 7.0 14.0 0.00 0.00 0.00 75 1010.8
20260505081803 56 230 9.0 16.0 0.00 0.00 0.00 74 1010.9
20260505080903 55 222 7.0 15.0 0.00 0.00 0.00 76 1010.8
20260505080003 55 221 8.0 16.0 0.00 0.00 0.00 77 1010.8
20260505075403 54 227 7.0 13.0 0.00 0.00 0.00 77 1010.5
20260505074503 54 221 6.0 12.0 0.00 0.00 0.00 78 1010.6
20260505073818 54 206 7.0 13.0 0.00 0.00 0.00 79 1010.6
20260505072703 54 233 7.0 14.0 0.00 0.00 0.00 79 1010.5
20260505071803 54 234 5.0 12.0 0.00 0.00 0.00 78 1010.5
20260505070903 54 237 4.0 9.0 0.00 0.00 0.00 77 1010.5
20260505070003 54 223 5.0 10.0 0.00 0.00 0.00 78 1010.4
20260505065403 54 243 3.0 7.0 0.00 0.00 0.00 77 1010.5
20260505064503 53 249 3.0 5.0 0.00 0.00 0.00 76 1010.5
20260505063603 53 245 2.0 4.0 0.00 0.00 0.00 76 1010.5
20260505062703 53 226 1.0 2.0 0.00 0.00 0.00 76 1010.4
20260505061803 53 0 0.0 0.0 0.00 0.00 0.00 75 1010.3
20260505060903 52 0 0.0 0.0 0.00 0.00 0.00 74 1010.4
20260505060003 52 337 0.0 1.0 0.00 0.00 0.00 73 1010.3
20260505055403 52 284 0.0 1.0 0.00 0.00 0.00 73 1010.3
20260505054503 52 267 0.0 1.0 0.00 0.00 0.00 73 1010.3
20260505053817 52 164 0.0 2.0 0.00 0.00 0.00 71 1010.2
20260505052703 52 135 0.0 1.0 0.00 0.00 0.00 70 1010.1
20260505051803 52 190 1.0 4.0 0.00 0.00 0.00 70 1010.1
20260505050903 53 164 2.0 4.0 0.00 0.00 0.00 69 1010.1
20260505040903 51 141 1.0 3.0 0.00 0.00 0.00 69 1009.9
20260505040003 51 127 1.0 2.0 0.00 0.00 0.00 70 1009.8
20260505035403 51 115 1.0 3.0 0.00 0.00 0.00 69 1009.9
20260505034717 51 116 1.0 3.0 0.00 0.00 0.00 69 1010.0
20260505033603 51 114 2.0 4.0 0.00 0.00 0.00 69 1009.9
20260505032703 51 112 3.0 4.0 0.00 0.00 0.00 70 1010.0
20260505031803 51 106 2.0 3.0 0.00 0.00 0.00 71 1009.9
20260505030903 51 88 2.0 2.0 0.00 0.00 0.00 71 1010.0
20260505030003 51 77 2.0 2.0 0.00 0.00 0.00 72 1010.1
20260505025403 50 77 2.0 2.0 0.00 0.00 0.00 72 1010.2
20260505024717 50 77 2.0 3.0 0.00 0.00 0.00 72 1010.2
20260505023603 50 86 2.0 2.0 0.00 0.00 0.00 73 1010.5
20260505022703 50 78 2.0 2.0 0.00 0.00 0.00 74 1010.6
20260505021803 50 75 2.0 3.0 0.00 0.00 0.00 74 1010.8
20260505020903 50 67 1.0 2.0 0.00 0.00 0.00 74 1010.9
20260505020003 50 50 2.0 3.0 0.00 0.00 0.00 74 1010.9
20260505015403 50 48 2.0 3.0 0.00 0.00 0.00 74 1011.0
20260505014503 50 67 1.0 2.0 0.00 0.00 0.00 74 1011.2
20260505013603 50 67 1.0 2.0 0.00 0.00 0.00 74 1011.2
20260505012703 50 67 1.0 2.0 0.00 0.00 0.00 74 1011.4
20260505011803 50 67 1.0 2.0 0.00 0.00 0.00 74 1011.5
20260505010903 50 52 2.0 2.0 0.00 0.00 0.00 73 1011.5
20260505010003 50 37 1.0 2.0 0.00 0.00 0.00 72 1011.6
20260505005403 50 26 1.0 2.0 0.00 0.00 0.00 72 1011.6
20260505004503 50 41 2.0 2.0 0.00 0.00 0.00 72 1011.8
20260505003603 50 68 1.0 2.0 0.00 0.00 0.00 72 1011.9
20260505002703 50 90 0.0 2.0 0.00 0.00 0.00 71 1012.1
20260505001803 50 93 1.0 2.0 0.00 0.00 0.00 71 1012.1
20260505000903 50 96 1.0 2.0 0.00 0.00 0.00 71 1012.3
20260505000003 50 80 1.0 2.0 0.00 0.00 0.00 71 1012.4
20260504235403 51 87 1.0 2.0 0.00 0.00 0.00 71 1012.4
20260504234504 51 103 1.0 2.0 0.00 0.00 0.00 70 1012.4
20260504233603 51 115 1.0 2.0 0.00 0.00 0.00 69 1012.5
20260504232703 51 112 1.0 2.0 0.00 0.00 0.00 69 1012.5
20260504231803 51 112 0.0 2.0 0.00 0.00 0.00 69 1012.6
20260504230903 51 270 0.0 2.0 0.00 0.00 0.00 68 1012.6
20260504230003 51 69 0.0 2.0 0.00 0.00 0.00 68 1012.8
20260504225403 51 87 1.0 2.0 0.00 0.00 0.00 67 1012.7
20260504224504 52 107 1.0 2.0 0.00 0.00 0.00 66 1012.7
20260504223603 52 117 1.0 3.0 0.00 0.00 0.00 66 1012.8
20260504222703 52 122 1.0 2.0 0.00 0.00 0.00 65 1012.9
20260504222017 53 122 1.0 2.0 0.00 0.00 0.00 65 1012.7
20260504220903 52 134 0.0 2.0 0.00 0.00 0.00 66 1012.8
20260504220218 52 128 0.0 1.0 0.00 0.00 0.00 65 1012.8
20260504215403 52 117 0.0 1.0 0.00 0.00 0.00 65 1013.0
20260504214503 52 112 0.0 1.0 0.00 0.00 0.00 65 1013.0
20260504213816 52 113 0.0 1.0 0.00 0.00 0.00 65 1013.0
20260504212703 53 96 1.0 2.0 0.00 0.00 0.00 63 1013.0
20260504212017 53 101 1.0 2.0 0.00 0.00 0.00 62 1012.9
20260504211116 53 111 1.0 2.0 0.00 0.00 0.00 61 1013.1
20260504210003 53 117 0.0 2.0 0.00 0.00 0.00 61 1013.0
20260504205403 53 101 0.0 1.0 0.00 0.00 0.00 60 1013.1
20260504204503 53 112 0.0 1.0 0.00 0.00 0.00 59 1013.1
20260504203603 53 136 1.0 2.0 0.00 0.00 0.00 59 1013.1
20260504202703 53 186 0.0 3.0 0.00 0.00 0.00 59 1013.3
20260504202016 53 177 0.0 2.0 0.00 0.00 0.00 60 1013.3
20260504200903 53 21 1.0 2.0 0.00 0.00 0.00 60 1013.3
20260504200003 53 62 1.0 2.0 0.00 0.00 0.00 59 1013.2
20260504195403 53 198 0.0 2.0 0.00 0.00 0.00 59 1013.3
20260504194718 54 212 0.0 2.0 0.00 0.00 0.00 59 1013.3
20260504193603 54 131 0.0 2.0 0.00 0.00 0.00 58 1013.2
20260504192703 55 149 1.0 4.0 0.00 0.00 0.00 58 1013.1
20260504191803 55 151 2.0 5.0 0.00 0.00 0.00 58 1013.1
20260504190903 54 150 2.0 6.0 0.00 0.00 0.00 60 1013.0
20260504190003 55 148 2.0 5.0 0.00 0.00 0.00 60 1013.0
20260504185403 55 150 3.0 6.0 0.00 0.00 0.00 62 1013.0
20260504184503 55 145 2.0 5.0 0.00 0.00 0.00 65 1012.9
20260504183603 56 150 3.0 6.0 0.00 0.00 0.00 66 1012.8
20260504182703 56 170 3.0 6.0 0.00 0.00 0.00 66 1012.8
20260504181803 56 181 3.0 6.0 0.00 0.00 0.00 65 1012.8
20260504181117 57 179 3.0 7.0 0.00 0.00 0.00 63 1012.7
20260504180003 57 165 4.0 7.0 0.00 0.00 0.00 62 1012.7
20260504175403 57 169 4.0 7.0 0.00 0.00 0.00 61 1012.6
20260504174503 58 183 4.0 7.0 0.00 0.00 0.00 59 1012.6
20260504173817 58 183 3.0 6.0 0.00 0.00 0.00 58 1012.6